Regional Weather Roundup
Issued by NWS Portland, ME

Home | Current Version | Previous Version | Text Only | Print | Product List | Glossary On
Versions: 1 2 3 4 5 6 7 8 9 10 11 12 13 14 15 16 17 18 19 20 21 22 23 24 25 26 27 28 29 30 31 32 33 34 35 36 37 38 39 40 41 42 43 44 45 46 47 48 49 50
000
ASUS41 KGYX 201405
RWRGYX
WEATHER ROUNDUP FOR MAINE AND NEW HAMPSHIRE
NATIONAL WEATHER SERVICE GRAY ME
1000 AM EDT MON OCT 20 2014

MEZ002-005-006-010-012-015-018-020-021-024-026-027-029-201500-
MAINE

CITY           SKY/WX    TMP DP  RH WIND       PRES   REMARKS
PORTLAND       MOSUNNY   47  28  47 W6        30.00R
SANFORD        MOSUNNY   45  25  45 SW15      30.00S
BAR HARBOR     MOSUNNY   45  28  53 W10G16    29.95R
WISCASSET      MOSUNNY   45  25  45 VRB3      29.99S
ROCKLAND       SUNNY     43  25  49 W12G17    29.96S
FRYEBURG       MOSUNNY   44  23  43 CALM      29.97R
LEWISTONAUBURN PTSUNNY   43  23  45 W3        29.98R
AUGUSTA        PTSUNNY   41  23  48 W10G22    29.97R
WATERVILLE     PTSUNNY   43  23  45 W8        29.93S
BANGOR         CLOUDY    42  25  50 W13G20    29.94R
GREENVILLE       N/A     36  24  62 VRB7      29.86R
MILLINOCKET    CLOUDY    40  26  57 NW15G24   29.89R
HOULTON        CLOUDY    38  26  62 W15G22    29.83R
PRESQUE ISLE   CLOUDY    39  27  60 W18G24    29.81S
FRENCHVILLE    CLOUDY    35  26  69 NW14G25   29.77S
CARIBOU        PTSUNNY   39  25  57 NW16G26   29.79R
$$

NHZ002-005-008-009-011-012-014-201500-
NEW HAMPSHIRE

CITY           SKY/WX    TMP DP  RH WIND       PRES   REMARKS
PORTSMOUTH     PTSUNNY   44  27  50 W10       30.01S
ROCHESTER      PTSUNNY   43  25  49 W9        30.00S
NASHUA         SUNNY     43  27  53 W8        30.06S
MANCHESTER     PTSUNNY   42  25  50 SW7       30.03R
CONCORD        MOSUNNY   40  26  57 SW6       30.03R
LACONIA        SUNNY     41  25  52 W14G20    29.98S
PLYMOUTH       PTSUNNY   41  31  69 W7        30.00R
BERLIN         PTSUNNY   39  25  57 VRB7      29.96S
WHITEFIELD     MOSUNNY   39  26  59 CALM      29.98S
JAFFREY        CLOUDY    37  27  67 S7        30.03R
LEBANON        MOSUNNY   39  26  59 CALM      30.01F
MT WASHINGTON  NOT AVBL
$$

VTZ005-007-008-201500-
VERMONT

CITY           SKY/WX    TMP DP  RH WIND       PRES   REMARKS
ST JOHNSBURY     N/A     39  26  59 MISG      29.98R
MONTPELIER     CLOUDY    38  26  62 CALM      30.02R
BURLINGTON     PTSUNNY   41  28  60 S8        30.01S
$$

MAZ007-012-024-CTZ003-RIZ002-NYZ038-NYZ072-201500-
SOUTHERN NEW ENGLAND AND NY

CITY           SKY/WX    TMP DP  RH WIND       PRES   REMARKS
BOSTON         MOSUNNY   46  28  49 SW12      30.06F
WORCESTER      PTSUNNY   41  30  65 SW13      30.04S
NANTUCKET      SUNNY     48  27  44 W14G22    30.09R
PROVIDENCE     MOSUNNY   46  31  55 W9        30.10S
HARTFORD       PTSUNNY   46  31  55 SW8       30.08R
ALBANY         PTSUNNY   43  32  65 S9        30.06R
NEW YORK CITY  PTSUNNY   49  31  49 SW6       30.12S
$$

ANZ081-ANZ082-ANZ150-NHZ014-MEZ023>029-201500-
COASTAL MARINE OBSERVATIONS

STATION/POSITION TIME  TEMP    WIND        PRES    WAVE
                       AIR SEA DIR/SP/G            HT/PER
                 (UTC) (F)     (DEG/KT/KT) (MB)    (FT/S)
MOUNT DESERT ROC 1300   44                 1013.7
MATINICUS ROCK   1300          300/ 18/ 20 1014.2R
PORTLAND WX BUOY 1350   44 55  270/ 10/ 12 1015.4R   2/12
WELLS            1300   43 50  260/  5/ 11 1015.2R
ISLE OF SHOALS   1300   40     260/ 16/ 18 1016.2R
JEFFREYS LEDGE   1321      56                N/A     4/ 5
CASHES LEDGE BUO 1350   46 55  270/ 12/ 16 1015.2R   4/ 5
$$

.............KEY..............
   WCI - WIND CHILL
   TC  - TEMPERATURE IN CELSIUS
   VSB - VISIBILITY IN MILES
   HX  - HEAT INDEX
   FAIR- INDICATES FEW OR NO CLOUDS BELOW 12,000 FT, WITH NO
         SIGNIFICANT WEATHER AND/OR OBSTRUCTIONS TO VISIBILITY.





USA.gov is the U.S. government's official web portal to all federal, state and local government web resources and services.